Content
SEND FEEDBACK

Daily
Averages
Monthly
Summary
United States of America

BURLINGTON, NORTH CAROLINA


Home > North America > United States > North Carolina
Elevation: 638 feet     Latitude: 36 02N     Longitude: 079 28W

WEATHER
 
SELECT A DAY
Number of Records: 174,675;   Date Range: 7/1/98 - 10/21/14
 
SHARE

PRINT THIS DATA

[ ← Previous Day ]
WEATHER ALMANAC - MARCH 29, 2014
[ Next Day → ]
[ °C ]   °F
Weather ElementAverageHighLow
Temperature59.2 °F66 °F (5:54 pm)55 °F (7:29 am)
Dewpoint56.5 °F61 °F (3:44 pm)53.1 °F (11:40 pm)
Humidity91 %97 % (1:22 am)81 % (5:54 pm)
Barometer29.87 in30.12 in (12:37 am)29.56 in (10:54 pm)
Wind Speed3.9 mph10.4 mph (4:14 pm)
Wind Gust18.4 mph (11:54 pm)
Weather ElementAverage
Visibility4.3 mi
Wind DirectionE (89.5 °)

Weather ElementTotal
Precipitation0.35 in
Heating Degree Days4.5 (Base 65)
Growing Degree Days10.5 (Base 50)
Averaged from 60 records on March 29, 2014
WEATHER CONDITIONS BREAKOUT
WIND DIRECTION BREAKOUT
WEATHER BY HOUR - MARCH 29, 2014
[ °C ]   °F
Local TimeTemperatureDewpointHumidityBarometerVisibilityWind DirectionWind SpeedGust SpeedPrecipitationEventsConditions
12:37 AM55.9 °F54.0 °F93 %30.12 in0.5 miCalm0.04 inFog-RainRain
12:54 AM57.0 °F55.0 °F93 %30.12 in0.8 miCalm0.06 inRainLight Rain
1:05 AM57.0 °F55.0 °F93 %30.12 in0.8 miCalm0.01 inRainLight Rain
1:22 AM55.9 °F55.0 °F97 %30.11 in0.2 miCalm0.01 inFog-RainLight Rain
1:33 AM55.9 °F54.0 °F93 %30.10 in0.2 miCalm0.02 inFog-RainLight Rain
1:44 AM55.9 °F54.0 °F93 %30.10 in0.2 miCalm0.02 inFog-RainLight Rain
1:54 AM55.9 °F54.0 °F93 %30.09 in0.2 miCalm0.02 inFog-RainLight Rain
2:01 AM55.9 °F54.0 °F93 %30.09 in0.5 miCalm0.00 inFog-RainLight Rain
2:11 AM55.9 °F54.0 °F93 %30.09 in0.2 miCalm0.00 inFog-RainLight Rain
2:54 AM55.9 °F54.0 °F93 %30.06 in0.2 miCalm0.00 inFog-RainLight Rain
3:01 AM55.9 °F54.0 °F93 %30.07 in0.5 miCalm0.00 inFog-RainLight Rain
3:28 AM55.9 °F54.0 °F93 %30.05 in0.2 miCalm0.01 inFogFog
3:54 AM55.9 °F54.0 °F93 %30.02 in0.2 miESE (110°)3.5 mph0.01 inFogFog
4:54 AM55.9 °F55.0 °F97 %30.00 in0.2 miCalmFogFog
5:54 AM55.9 °F55.0 °F97 %30.03 in0.2 miCalm0.01 inFog-RainLight Rain
6:07 AM55.9 °F54.0 °F93 %30.03 in0.5 miCalm0.01 inFog-RainLight Rain
6:19 AM55.9 °F54.0 °F93 %30.03 in0.8 miCalm0.02 inRainLight Rain
6:54 AM55.9 °F54.0 °F93 %30.01 in0.5 miCalm0.03 inFog-RainLight Rain
7:03 AM55.9 °F54.0 °F93 %30.01 in0.2 miCalm0.00 inFog-RainLight Rain
7:29 AM55.0 °F54.0 °F96 %30.00 in0.5 miCalm0.00 inFogFog
7:37 AM55.9 °F54.0 °F93 %30.00 in0.2 miCalm0.00 inFogFog
7:49 AM55.4 °F53.6 °F94 %30.00 in0.5 miESE (110°)4.6 mph0.00 inFog-RainLight Rain
7:54 AM55.9 °F54.0 °F93 %29.99 in0.8 miESE (120°)3.5 mph0.00 inRainLight Rain
7:57 AM55.9 °F54.0 °F93 %30.00 in1.0 miESE (110°)3.5 mph0.00 inRainLight Rain
8:04 AM57.0 °F55.0 °F93 %30.00 in0.8 miESE (120°)4.6 mph0.00 inRainLight Rain
8:25 AM57.0 °F55.0 °F93 %30.00 in0.8 miESE (110°)4.6 mph0.00 inOvercast
8:54 AM57.0 °F55.0 °F93 %29.99 in1.8 miESE (120°)4.6 mph0.00 inOvercast
8:59 AM57.0 °F55.0 °F93 %29.99 in3.0 miEast (100°)3.5 mphOvercast
9:54 AM57.9 °F55.9 °F93 %29.96 in5.0 miESE (110°)4.6 mph0.00 inOvercast
10:54 AM59.0 °F57.0 °F93 %29.92 in10.0 miESE (120°)6.9 mphOvercast
11:09 AM60.1 °F57.0 °F90 %29.91 in10.0 miESE (120°)9.2 mphOvercast
11:20 AM60.1 °F57.0 °F90 %29.91 in2.5 miSE (130°)5.8 mphOvercast
11:47 AM60.1 °F57.9 °F93 %29.89 in3.0 miESE (120°)9.2 mph0.01 inOvercast
11:54 AM60.1 °F57.9 °F93 %29.88 in4.0 miSE (130°)6.9 mph0.01 inOvercast
12:29 PM60.1 °F57.9 °F93 %29.86 in9.0 miVariable6.9 mph0.00 inRainLight Rain
12:54 PM61.0 °F57.9 °F90 %29.83 in10.0 miSE (140°)6.9 mph0.00 inOvercast
1:54 PM63.0 °F59.0 °F87 %29.77 in10.0 miSE (130°)8.1 mph0.00 inOvercast
2:39 PM63.0 °F59.0 °F87 %29.75 in7.0 miVariable5.8 mphOvercast
2:49 PM62.6 °F60.8 °F94 %29.74 in1.8 miVariable4.6 mph0.00 inRainLight Rain
2:54 PM63.0 °F60.1 °F90 %29.73 in1.5 miSE (140°)4.6 mph0.00 inRainLight Rain
3:25 PM63.0 °F60.1 °F90 %29.72 in1.8 miSSE (160°)4.6 mph0.01 inRainLight Rain
3:32 PM63.0 °F60.1 °F90 %29.71 in2.5 miSE (140°)5.8 mph0.01 inOvercast
3:44 PM63.0 °F61.0 °F93 %29.70 in2.5 miSE (130°)4.6 mph0.01 inOvercast
3:54 PM63.0 °F60.1 °F90 %29.70 in4.0 miSouth (170°)5.8 mph0.01 inOvercast
4:14 PM64.0 °F60.1 °F87 %29.72 in10.0 miSouth (190°)10.4 mph0.00 inRainLight Rain
4:39 PM64.0 °F60.1 °F87 %29.70 in9.0 miSouth (190°)6.9 mph0.01 inRainLight Rain
4:54 PM64.0 °F60.1 °F87 %29.67 in10.0 miSouth (180°)4.6 mph0.01 inOvercast
5:18 PM64.9 °F61.0 °F87 %29.66 in10.0 miSouth (180°)6.9 mphOvercast
5:54 PM66.0 °F60.1 °F81 %29.65 in10.0 miSouth (180°)4.6 mphOvercast
6:54 PM64.9 °F60.1 °F84 %29.63 in10.0 miSSE (160°)5.8 mph0.00 inOvercast
7:54 PM64.0 °F59.0 °F84 %29.61 in10.0 miSSE (160°)5.8 mphOvercast
8:54 PM62.1 °F57.9 °F86 %29.60 in10.0 miSSE (150°)4.6 mphMostly Cloudy
9:08 PM62.1 °F59.0 °F90 %29.60 in10.0 miSSE (160°)4.6 mphMostly Cloudy
9:50 PM60.8 °F57.2 °F88 %29.58 in10.0 miVariable3.5 mphMostly Cloudy
9:54 PM60.1 °F57.9 °F93 %29.57 in10.0 miNorthMostly Cloudy
10:15 PM62.1 °F59.0 °F90 %29.58 in10.0 miSouth (190°)4.6 mphMostly Cloudy
10:54 PM61.0 °F57.9 °F90 %29.56 in9.0 miSSW (210°)3.5 mphScattered Clouds
11:12 PM61.0 °F57.9 °F90 %29.57 in10.0 miSSW (210°)9.2 mphMostly Cloudy
11:40 PM59.0 °F53.1 °F81 %29.57 in10.0 miWNW (290°)10.4 mph0.00 inRainLight Rain
11:54 PM59.0 °F53.1 °F81 %29.57 in10.0 miWest (280°)10.4 mph18.4 mph0.00 inOvercast
Hourly data recorded from KBUY, located miles away from Burlington, North Carolina







STORIES FROM OUR PARTNERS